Header for Extended Forecast Station List Page

Search by: ID | Name | Date | Parm | Value | Avg | % Avg
Sort by: ID | Name | Date | Parm | Value | Avg | % Avg

Enter search or view all records.

Click on id for station plot
#IDNameDateParmValueAvg% Avg
0LYDM8KOOTENAI-LIBBY DAM02-20-2024INFLOW (KAF)2910366379
1LEOI1KOOTENAI-AT LEONIA02-20-2024DISCHARGE (KAF)3168335894
2BFEI1KOOTENAI-AT BONNERS FERRY02-20-2024STAGE (FT)MMM
3FCFM8NF FLATHEAD-NEAR COLUMBIA FALLS02-20-2024DISCHARGE (KAF)887117675
4WGCM8MF FLATHEAD-NEAR WEST GLACIER02-20-2024DISCHARGE (KAF)920112782
5HHWM8SF FLATHEAD-HUNGRY HORSE DAM02-20-2024INFLOW (KAF)1312151786
6CFMM8FLATHEAD-AT COLUMBIA FALLS02-20-2024DISCHARGE (KAF)2601328579
7DLGM8CLARK FORK-AT DEER LODGE02-20-2024DISCHARGE (KAF)687590
8DRMM8CLARK FORK-NR DRUMMOND02-20-2024DISCHARGE (KAF)18721488
9RCCM8ROCK CREEK-NEAR CLINTON02-20-2024DISCHARGE (KAF)14719376
10BONM8BLACKFOOT-NEAR BONNER02-20-2024DISCHARGE (KAF)39461664
11ABOM8CLARK FORK-ABOVE MISSOULA02-20-2024DISCHARGE (KAF)757107870
12BITM8BITTERROOT-NEAR MISSOULA02-20-2024DISCHARGE (KAF)72190580
13BELM8CLARK FORK-BELOW MISSOULA02-20-2024DISCHARGE (KAF)1478202473
14STRM8ST. REGIS-NEAR ST. REGIS02-20-2024DISCHARGE (KAF)20523787
15SRGM8CLARK FORK-AT ST REGIS02-20-2024DISCHARGE (KAF)1968269073
16KERM8FLATHEAD-SELI’Š KSANKA QLISPE’ DAM02-20-2024INFLOW (KAF)3166409177
17NOXM8CLARK FORK-NOXON RAPIDS DAM02-20-2024INFLOW (KAF)4708671370
18CABI1CLARK FORK-CABINET GORGE DAM02-20-2024INFLOW (KAF)5212752069
19PRTI1PRIEST-NEAR PRIEST RIVER02-20-2024DISCHARGE (KAF)816717114
20ALFW1PEND OREILLE-ALBENI FALLS DAM02-20-2024INFLOW (KAF)6773880577
21HOPI1PEND OREILLE-LAKE PEND OREILLE NR HOPE02-20-2024LAKE ELEVATION (FT)MMM
22COEI1COEUR D ALENE-COEUR D ALENE LAKE02-20-2024INFLOW (KAF)2297262987
23SPOW1SPOKANE-AT SPOKANE02-20-2024DISCHARGE (KAF)2196265183
24LLKW1SPOKANE-AT LONGLAKE02-20-2024INFLOW (KAF)2496297984
25SATI1ST MARIES-NEAR SANTA02-20-2024DISCHARGE (KAF)145137106
26SJMI1ST JOE-AT ST MARIES02-20-2024STAGE (FT)MMM
27CIBW1COLUMBIA-AT INTL BOUNDARY02-20-2024DISCHARGE (KAF)168382406370
28LAUW1KETTLE-AT LAURIER02-20-2024DISCHARGE (KAF)15391525101
29GCDW1COLUMBIA-GRAND COULEE DAM02-20-2024INFLOW (KAF)210012770376
30CHJW1COLUMBIA-CHIEF JOSEPH DAM02-20-2024INFLOW (KAF)199852768672
31TONW1OKANOGAN-NEAR TONASKET02-20-2024DISCHARGE (KAF)844121669
32PATW1METHOW-NEAR PATEROS02-20-2024DISCHARGE (KAF)53766780
33WELW1COLUMBIA-WELLS DAM02-20-2024INFLOW (KAF)213562975872
34CHDW1CHELAN-LAKE CHELAN DAM02-20-2024INFLOW (KAF)56173377
35RRHW1COLUMBIA-ROCKY REACH DAM02-20-2024INFLOW (KAF)218333048072
36ARDW1ENTIAT-NEAR ARDENVOIR02-20-2024DISCHARGE (KAF)13314294
37PESW1WENATCHEE-AT PESHASTIN02-20-2024DISCHARGE (KAF)966107390
38WANW1COLUMBIA-WANAPUM DAM02-20-2024INFLOW (KAF)227833179872
39PRWW1COLUMBIA-PRIEST RAPIDS DAM02-20-2024INFLOW (KAF)227893186372
40KEDW1YAKIMA-KEECHELUS LAKE02-20-2024INFLOW (KAF)110106104
41KADW1KACHESS-KACHESS DAM02-20-2024INFLOW (KAF)969998
42EASW1YAKIMA-AT EASTON02-20-2024DISCHARGE (KAF)939994
43CLUW1CLE ELUM-CLE ELUM LAKE02-20-2024INFLOW (KAF)321312103
44TNAW1TEANAWAY-BELOW FORKS02-20-2024DISCHARGE (KAF)146134109
45UMTW1YAKIMA-AT UMTANUM02-20-2024DISCHARGE (KAF)60163495
46BUDW1BUMPING-BUMPING LAKE DAM02-20-2024INFLOW (KAF)10294109
47CLFW1NACHES-NEAR CLIFFDEL02-20-2024DISCHARGE (KAF)334329102
48RILW1TIETON-RIMROCK LAKE NEAR RIMROCK02-20-2024INFLOW (KAF)15015597
49NACW1NACHES-NEAR NACHES02-20-2024DISCHARGE (KAF)486487100
50PARW1YAKIMA-NEAR PARKER02-20-2024DISCHARGE (KAF)58372081
51KIOW1YAKIMA-AT KIONA02-20-2024DISCHARGE (KAF)905105586
52IPDI1HENRYS FORK-ISLAND PARK DAM02-20-2024INFLOW (KAF)15616396
53CHEI1FALL RIVER-NEAR CHESTER02-20-2024DISCHARGE (KAF)323295109
54ANTI1HENRYS FORK-AT ST. ANTHONY02-20-2024DISCHARGE (KAF)610586104
55TEAI1TETON-NEAR ST. ANTHONY02-20-2024DISCHARGE (KAF)312269116
56REXI1HENRYS FORK-AT REXBURG02-20-2024DISCHARGE (KAF)745682109
57JLKW4SNAKE-JACKSON LAKE AT DAM02-20-2024INFLOW (KAF)563563100
58JKSW4SNAKE-NEAR JACKSON02-20-2024DISCHARGE (KAF)917102789
59ALPW4SNAKE-NEAR ALPINE02-20-2024DISCHARGE (KAF)1170132588
60PLDI1SF SNAKE-PALISADES DAM02-20-2024INFLOW (KAF)1960198199
61HEII1SNAKE-NEAR HEISE02-20-2024DISCHARGE (KAF)20261791113
62RIDI1WILLOW CREEK-RIRIE DAM02-20-2024INFLOW (KAF)7939201
63SIFI1SNAKE-AB EAGLE ROCK NR IDAHO FALLS02-20-2024DISCHARGE (KAF)20651581131
64SHYI1SNAKE-NEAR SHELLEY02-20-2024DISCHARGE (KAF)19401487130
65SNAI1SNAKE-AT BLACKFOOT02-20-2024DISCHARGE (KAF)16431075153
66BFTI1SNAKE-NEAR BLACKFOOT02-20-2024DISCHARGE (KAF)16101069151
67PIHI1PORTNEUF-AT POCATELLO02-20-2024DISCHARGE (KAF)13373181
68AFRI1SNAKE-AMERICAN FALLS RESERVOIR02-20-2024INFLOW (KAF)22871714133
69MILI1SNAKE-AT MILNER02-20-2024DISCHARGE (KAF)M55M
70HOTI1BRUNEAU-NEAR HOT SPRINGS02-20-2024DISCHARGE (KAF)234145161
71SWAI1SNAKE-BELOW SWAN FALLS02-20-2024DISCHARGE (KAF)19221893102
72HWRI1BIG LOST-AT HOWELL RANCH NEAR CHILLY02-20-2024DISCHARGE (KAF)11591127
73MACI1BIG LOST-MACKAY RESERVOIR NEAR MACKAY02-20-2024INFLOW (KAF)10066151
74HALI1BIG WOOD-AT HAILEY02-20-2024DISCHARGE (KAF)167153109
75MAGI1BIG WOOD-MAGIC DAM02-20-2024INFLOW (KAF)188154123
76LWRI1LITTLE WOOD-LITTLE WOOD DAM02-20-2024INFLOW (KAF)5951115
77OWYO3OWYHEE-OWYHEE DAM02-20-2024INFLOW (KAF)559268209
78ARAI1SF BOISE-ANDERSON RANCH DAM02-20-2024INFLOW (KAF)439373118
79LUCI1BOISE-LUCKY PEAK DAM02-20-2024INFLOW (KAF)1093898122
80BIGI1BOISE-AT GLENWOOD BRIDGE02-20-2024DISCHARGE (KAF)466208224
81PARI1BOISE-NEAR PARMA02-20-2024DISCHARGE (KAF)495255194
82WRMO3MALHEUR-WARM SPRINGS DAM02-20-2024INFLOW (KAF)12779161
83BERO3MALHEUR-AGENCY VALLEY DAM02-20-2024INFLOW (KAF)7852150
84BULO3BULLY CREEK-BULLY CREEK DAM02-20-2024INFLOW (KAF)344767
85CSDI1NF PAYETTE-CASCADE DAM02-20-2024INFLOW (KAF)36643784
86DEDI1DEADWOOD-NEAR LOWMAN02-20-2024INFLOW (KAF)8910188
87EMMI1PAYETTE-NEAR EMMETT02-20-2024DISCHARGE (KAF)900107784
88WSRI1WEISER-NEAR WEISER02-20-2024DISCHARGE (KAF)439417105
89WEII1SNAKE-AT WEISER02-20-2024DISCHARGE (KAF)42964001107
90BRNI1SNAKE-BROWNLEE DAM02-20-2024INFLOW (KAF)48724479109
91WHBI1SALMON-AT WHITEBIRD02-20-2024DISCHARGE (KAF)3638445482
92TRYO3GRANDE RONDE-TROY02-20-2024DISCHARGE (KAF)13791286107
93ANAW1SNAKE-NEAR ANATONE02-20-2024DISCHARGE (KAF)98541148786
94ORFI1CLEARWATER-AT OROFINO02-20-2024DISCHARGE (KAF)3555397489
95DWRI1NF CLEARWATER-DWORSHAK DAM02-20-2024INFLOW (KAF)2094240987
96SPDI1CLEARWATER-AT SPALDING02-20-2024DISCHARGE (KAF)4716583481
97LGDW1SNAKE-LOWER GRANITE DAM02-20-2024INFLOW (KAF)145661782882
98LGSW1SNAKE-LITTLE GOOSE DAM02-20-2024INFLOW (KAF)145661786282
99LMNW1SNAKE-LOWER MONUMENTAL DAM02-20-2024INFLOW (KAF)146881800982
100IHDW1SNAKE-ICE HARBOR DAM02-20-2024INFLOW (KAF)146891801482
101TCHW1WALLA WALLA-NEAR TOUCHET02-20-2024DISCHARGE (KAF)17320485
102MCDW1COLUMBIA-MCNARY DAM02-20-2024INFLOW (KAF)384335105475
103GIBO3UMATILLA-NEAR GIBBON02-20-2024DISCHARGE (KAF)9188104
104PDTO3UMATILLA-AT PENDLETON02-20-2024DISCHARGE (KAF)205189108
105MYKO3MCKAY CREEK-NEAR PILOT ROCK02-20-2024DISCHARGE (KAF)343888
106UMAO3UMATILLA-NEAR UMATILLA02-20-2024DISCHARGE (KAF)170168101
107MONO3NF JOHN DAY-AT MONUMENT02-20-2024DISCHARGE (KAF)735604122
108SERO3JOHN DAY-AT SERVICE CK02-20-2024DISCHARGE (KAF)1117860130
109JDAO3COLUMBIA-JOHN DAY DAM02-20-2024INFLOW (KAF)410285307677
110MODO3DESCHUTES-AT MOODY NR BIGGS02-20-2024DISCHARGE (KAF)15381421108
111TDAO3COLUMBIA-THE DALLES DAM02-20-2024INFLOW (KAF)415145350078
112PITW1KLICKITAT-NEAR PITT02-20-2024DISCHARGE (KAF)602504119
113HODO3HOOD-NEAR TUCKER BRIDGE02-20-2024DISCHARGE (KAF)320255126
114UNDW1WHITE SALMON-NEAR UNDERWOOD02-20-2024DISCHARGE (KAF)363339107
115BONO3COLUMBIA-BONNEVILLE DAM02-20-2024INFLOW (KAF)428075562477